Skip Page Navigation
NASA JPL Caltech
NASA Logo - Jet Propulsion Laboratory + View the NASA Portal
+ Center for Near-Earth Object Studies
JPL Home Earth Solar System Stars & Galaxies Technology
JPL Solar System Dynamics
BODIES ORBITS EPHEMERIDES TOOLS PHYSICAL DATA DISCOVERY FAQ SITE MAP
JPL Small-Body Database Browser
Search: [ help ]  
79412 (1997 JO14)
Classification: Main-belt Asteroid          SPK-ID: 2079412
Ephemeris | Orbit Diagram | Orbital Elements | Mission Design | Physical Parameters | Discovery Circumstances ]

[ show orbit diagram ]
Orbital Elements at Epoch 2459000.5 (2020-May-31.0) TDB
Reference: JPL 17 (heliocentric ecliptic J2000)
 Element Value Uncertainty (1-sigma)   Units 
e .2074407254080975 4.1586e-08  
a 2.369613562562502 1.0453e-08 au
q 1.87805920620767 9.745e-08 au
i 3.304357272007953 4.3317e-06 deg
node 99.0009823366708 9.8633e-05 deg
peri 199.1238540336422 9.962e-05 deg
M 67.58458275670952 1.7578e-05 deg
tp 2458750.373415173653
(2019-Sep-23.87341517)
6.3987e-05 TDB
period 1332.338927971642
3.65
8.816e-06
2.414e-08
d
yr
n .2702015173782136 1.7879e-09 deg/d
Q 2.861167918917334 1.2621e-08 au
  Orbit Determination Parameters
   # obs. used (total)      752  
   data-arc span      8057 days (22.06 yr)  
   first obs. used      1997-04-29  
   last obs. used      2019-05-21  
   planetary ephem.      DE431  
   SB-pert. ephem.      SB431-N16  
   condition code      0  
   norm. resid. RMS      .60716  
   source      ORB  
   producer      Otto Matic  
   solution date      2019-Jul-13 09:03:15  

Additional Information
 Earth MOID = .862626 au 
 Jupiter MOID = 2.35415 au 
 T_jup = 3.514 
[ show covariance matrix ]

Ephemeris | Orbit Diagram | Orbital Elements | Mission Design | Physical Parameters | Discovery Circumstances ]

Physical Parameter Table
Parameter Symbol Value Units Sigma Reference Notes
absolute magnitude H 15.6   n/a MPO337854  

79412 (1997 JO14)          Discovered 1997-May-03 by Elst, E. W. at La Silla
Reference: 20040504/Numbers.arcLast Updated: 2004-07-16

Alternate Designations
 1997 JO14 = 2001 OQ71 
Ephemeris | Orbit Diagram | Orbital Elements | Mission Design | Physical Parameters | Discovery Circumstances ]
ABOUT SSD CREDITS/AWARDS PRIVACY/COPYRIGHT GLOSSARY LINKS
FirstGov 2020-Oct-20 04:07 UT
(server date/time)  
NASA Home Page
Site Manager:   Ryan S. Park
Webmaster  Alan B. Chamberlin